GFSNE_prec_cloud_015.txt.gz
Cloud_Cover
69 88 95 99 100 100 100 100 96 20 34 98 16 96 82 17 70 84 69 98 82 5 2 4 0 0 94 3 1 6 8 48 78 100 100 51 100 100
99 96 99 100 100 100 100 100 100 52 5 94 81 100 82 67 79 28 47 60 5 37 12 0 1 6 16 5 5 0 47 100 100 100 100 100 96 100
57 78 94 100 100 100 99 100 100 89 65 2 85 94 84 100 99 92 92 26 46 34 99 5 61 4 5 18 5 0 11 96 84 35 80 100 88 100
100 94 73 100 100 100 93 82 10 66 92 94 11 98 100 100 100 99 88 100 88 98 100 92 93 2 5 100 5 2 4 100 100 100 99 100 100 100
96 79 94 100 100 5 5 6 5 39 89 87 71 100 100 98 100 100 100 81 100 90 75 100 71 5 27 99 5 5 12 9 92 86 86 100 100 99
99 100 100 64 5 5 4 5 50 100 100 96 99 100 99 100 99 99 82 90 99 99 98 100 82 5 88 100 73 51 73 88 40 82 100 98 100 100
99 100 18 5 0 0 4 66 100 100 100 100 100 91 100 100 100 70 100 94 71 100 100 100 100 80 14 100 93 100 69 81 93 91 50 98 94 100
18 5 5 5 59 4 80 98 30 54 100 100 100 100 100 100 100 100 100 100 100 100 100 100 100 97 100 100 78 100 100 95 100 100 78 100 100 100
6 5 5 5 44 66 59 28 98 99 94 79 100 99 100 100 100 100 100 100 92 83 100 100 100 100 100 100 41 96 100 100 100 100 100 100 100 100
5 5 5 37 13 5 5 5 78 100 100 63 65 54 100 100 100 100 100 98 48 55 100 100 100 100 100 100 63 91 100 100 100 100 93 100 100 100
58 53 8 5 5 2 5 76 71 77 96 82 29 55 60 7 43 97 52 98 83 100 86 100 100 100 100 23 5 92 100 100 100 100 100 99 100 100
70 73 68 4 0 5 7 14 85 65 5 23 95 96 100 100 74 86 96 100 100 64 100 100 99 100 88 58 3 78 100 100 100 100 100 100 100 100
5 46 100 22 5 5 5 32 68 5 60 100 100 100 100 100 100 100 100 100 100 100 99 100 100 100 96 100 100 68 100 100 100 100 100 100 100 100
59 88 82 5 3 5 5 3 4 16 96 100 100 100 100 93 98 94 100 100 100 96 100 100 56 100 100 98 100 100 100 100 100 100 100 100 100 100
67 51 5 5 5 8 80 5 7 100 86 100 100 100 100 100 95 99 100 100 98 90 100 100 87 26 84 85 100 100 100 100 100 100 100 96 100 100
88 95 29 13 10 19 66 100 100 100 47 96 100 100 100 100 100 100 100 93 100 100 100 100 100 84 60 19 32 83 94 100 100 100 100 93 98 100
10 33 99 100 99 100 100 100 100 100 100 37 100 100 100 100 100 100 100 100 100 100 100 100 90 77 70 67 88 48 27 66 95 92 13 61 35 73
49 99 100 100 100 100 100 100 100 100 100 67 100 100 100 100 100 100 100 100 100 100 100 100 100 100 94 48 37 100 78 32 5 34 66 80 94 83
87 97 100 95 100 100 100 100 100 100 24 100 100 100 100 100 100 100 100 100 100 100 100 100 100 100 100 100 100 36 94 100 97 95 26 63 85 36
90 97 100 100 100 100 100 100 100 100 100 100 100 100 100 100 100 100 100 100 100 100 100 100 100 100 100 100 100 100 100 98 100 81 46 55 86 13
98 99 85 98 100 100 98 100 100 99 85 97 100 100 100 100 100 100 100 100 100 100 100 100 100 100 100 100 100 100 100 100 100 100 100 100 98 92
100 100 100 94 94 100 100 100 100 100 100 100 100 100 100 100 100 100 100 100 100 100 100 100 100 100 100 100 100 100 100 100 100 100 100 96 93 99
94 100 91 99 100 98 100 100 100 100 100 100 100 100 100 100 100 100 100 100 100 95 88 100 100 100 100 100 100 100 100 100 100 100 100 100 90 95

GFSNE_prec_cloud_021.txt.gz
Cloud_Cover
9 24 69 45 100 100 42 8 23 11 4 0 0 4 5 4 4 0 0 0 0 0 0 0 0 5 86 100 93 9 71 79 81 99 13 89 100 76
57 96 100 100 100 99 67 54 23 74 8 0 0 0 0 0 0 0 0 0 0 0 0 0 4 50 51 5 5 5 5 5 10 23 5 4 99 100
86 100 100 100 100 100 93 6 41 99 5 1 0 0 0 0 0 0 0 0 3 3 0 0 19 69 5 32 100 17 16 5 5 5 5 3 2 56
96 100 96 100 100 90 30 37 90 2 0 0 0 0 0 0 0 0 0 0 5 5 5 9 30 42 21 10 100 97 6 5 5 5 26 13 33 2
100 100 90 100 74 5 4 0 0 0 0 4 0 0 0 0 0 1 0 0 2 4 4 5 23 29 28 44 99 60 22 12 16 5 90 1 2 4
100 100 100 92 5 2 0 0 0 0 0 3 0 0 2 0 4 11 28 5 5 4 5 5 5 5 5 83 100 39 5 16 75 100 100 12 10 13
100 78 39 3 0 0 0 0 0 2 5 5 5 5 5 5 96 84 85 5 0 0 1 2 3 5 28 100 99 90 63 100 96 94 90 100 77 11
100 82 4 5 0 0 0 1 5 4 5 5 9 86 80 72 23 5 5 5 5 0 4 0 0 4 30 100 100 100 100 99 100 75 84 100 100 92
56 85 4 1 0 0 0 0 0 0 2 3 12 64 10 40 5 5 5 10 23 5 9 5 0 0 86 100 100 100 100 99 100 99 87 97 100 100
5 11 5 5 5 5 0 0 0 0 0 4 20 3 3 44 88 53 35 5 7 5 76 77 1 4 17 87 100 100 30 82 71 100 92 100 99 100
61 1 4 5 5 5 5 5 4 0 0 0 0 5 5 9 57 100 81 100 71 5 69 84 15 15 5 100 100 100 83 88 60 100 100 100 100 100
1 4 4 2 5 5 5 5 5 2 4 5 0 5 5 5 51 96 87 99 100 88 91 65 5 74 18 100 36 57 100 100 100 100 100 100 100 100
5 5 5 5 5 5 5 5 5 5 5 5 5 5 5 5 5 50 91 100 100 99 100 100 45 83 89 91 95 100 100 100 100 100 100 100 100 100
5 5 5 5 5 3 5 5 5 5 5 5 5 5 5 39 5 5 5 5 69 98 100 100 78 56 30 38 100 100 100 100 100 100 100 100 100 100
5 5 5 5 5 5 5 5 63 36 5 35 5 5 5 42 6 5 5 5 6 73 100 100 31 22 100 97 100 100 100 100 100 100 100 100 100 100
5 14 10 5 6 57 66 18 5 5 5 5 5 5 5 5 24 30 42 7 74 97 100 69 72 100 100 39 95 100 100 100 100 100 100 100 100 100
59 94 69 81 35 69 48 51 22 62 75 5 43 5 5 5 12 65 90 78 89 65 97 60 98 92 83 22 100 100 100 100 100 100 100 100 100 100
96 85 95 68 23 12 79 52 50 77 94 67 53 16 14 45 5 38 95 96 78 83 100 87 98 95 100 90 77 99 100 100 100 100 100 100 100 100
55 29 65 60 40 38 76 80 87 63 46 86 6 5 46 6 21 8 93 100 100 91 100 100 100 95 87 100 100 98 32 87 100 100 100 100 100 100
68 39 37 36 44 35 41 84 78 94 56 54 5 13 61 55 67 20 5 100 100 99 100 100 100 69 99 98 100 99 67 85 85 100 84 95 100 100
100 100 74 92 80 95 100 79 99 93 87 68 31 58 67 55 31 56 60 9 100 100 100 100 100 100 100 59 78 97 94 82 75 93 94 64 88 83
100 100 100 97 99 100 100 100 99 100 76 69 60 78 57 46 6 22 86 58 22 100 100 100 100 100 100 100 96 85 91 70 15 100 93 78 91 79
100 100 100 100 71 80 54 97 57 90 61 57 51 53 71 5 5 10 99 73 42 36 100 100 100 100 100 100 100 100 100 100 73 52 100 100 97 75

GFSNE_prec_cloud_024.txt.gz
Cloud_Cover
6 92 100 100 100 100 100 100 58 7 15 5 5 2 0 0 0 0 0 0 0 0 0 5 5 5 55 100 100 100 100 100 100 100 100 100 100 100
100 74 10 65 100 100 100 89 95 96 74 60 6 4 0 0 0 0 0 0 0 0 3 5 5 5 9 34 7 5 69 98 99 100 100 100 100 65
74 92 65 100 100 100 100 100 89 91 75 19 0 0 0 0 0 0 0 0 0 0 4 5 5 1 5 5 5 5 5 45 77 96 64 95 85 41
81 86 99 100 100 100 100 19 23 0 2 4 0 0 0 0 0 0 0 0 0 0 5 0 3 5 5 5 5 34 81 11 14 5 5 5 5 95
100 100 100 100 100 75 30 47 18 1 0 5 0 0 0 0 0 0 4 4 4 2 0 0 0 5 5 4 5 57 92 87 5 5 5 5 65 93
100 100 97 91 46 16 0 0 0 0 0 5 3 4 5 0 5 5 27 5 2 0 0 0 4 1 0 0 4 88 100 33 23 11 5 5 38 71
100 100 100 9 13 5 5 0 0 4 5 5 5 5 5 5 12 5 27 5 2 0 0 5 2 0 0 0 2 100 96 100 78 90 6 77 75 38
93 20 5 5 4 0 0 0 1 2 5 5 5 5 5 5 5 5 6 44 88 5 50 5 5 4 0 0 36 100 100 100 100 100 30 100 99 99
5 5 5 0 0 0 0 5 4 0 0 5 5 5 14 1 86 71 86 84 88 5 96 61 4 5 0 0 21 100 100 100 99 25 12 100 98 100
7 5 5 1 0 0 5 2 0 0 0 0 4 1 4 5 98 100 100 99 77 21 91 91 3 5 4 39 8 100 100 81 54 4 29 100 100 100
10 5 2 0 0 0 5 5 5 0 0 0 2 5 5 5 87 100 69 99 94 36 76 100 34 34 44 92 94 31 100 100 44 91 76 100 100 100
5 4 0 0 0 2 5 5 5 0 4 5 0 3 0 1 5 60 75 100 100 56 69 100 71 100 7 58 100 63 89 59 100 100 100 100 100 100
5 5 5 2 5 5 17 9 5 5 5 5 5 5 5 5 5 5 5 91 90 98 93 100 91 100 53 14 100 22 73 98 100 100 100 100 100 100
5 5 5 5 54 27 52 38 5 5 5 63 21 5 22 5 5 5 5 5 5 31 8 100 100 100 42 44 34 48 95 100 100 100 100 100 100 100
5 5 14 21 7 41 65 57 5 5 6 41 5 5 56 5 5 40 19 48 5 5 91 100 100 100 91 65 51 93 100 100 100 100 100 100 100 100
73 99 82 66 5 51 54 41 12 5 5 9 40 74 68 5 5 5 75 56 78 40 85 8 83 100 97 89 46 98 100 100 100 100 100 100 100 100
100 100 93 77 8 15 55 68 90 46 46 57 100 100 88 42 5 5 10 81 79 96 85 52 64 100 100 62 100 100 100 100 100 100 100 100 100 100
100 91 94 92 25 31 44 58 96 76 35 5 100 100 29 63 58 5 5 36 60 93 97 98 36 49 90 97 92 100 100 100 100 100 100 100 100 100
99 84 81 93 80 69 75 70 100 85 100 84 81 97 53 62 61 43 28 5 65 63 89 100 92 67 89 98 84 100 100 100 100 100 100 100 100 100
100 97 76 87 79 73 82 82 100 85 92 94 98 89 64 75 72 67 50 88 13 87 93 97 100 98 100 100 95 95 100 100 100 100 100 100 100 100
100 100 100 100 98 100 100 90 76 56 82 100 98 82 65 75 67 56 75 55 56 37 100 100 100 100 96 100 97 99 98 100 100 100 100 100 99 94
76 99 100 100 100 100 100 100 71 77 72 97 79 88 88 87 61 32 58 89 25 55 80 100 100 100 100 100 96 98 99 95 100 100 100 82 85 96
100 94 100 100 100 100 100 100 100 100 100 100 76 68 98 69 12 50 59 81 82 5 5 98 100 100 100 100 100 100 100 99 77 58 79 53 63 66

GFSNE_prec_cloud_030.txt.gz
Cloud_Cover
5 4 4 4 5 5 5 5 7 68 15 100 97 93 58 29 0 0 0 0 0 2 1 5 5 5 32 96 99 100 100 100 100 100 100 100 100 97
0 1 30 74 5 5 6 63 82 64 24 5 4 0 0 0 0 0 0 0 0 0 5 5 5 79 98 46 27 60 99 100 100 100 100 100 100 100
75 99 20 5 5 22 5 5 5 5 6 0 0 0 0 0 0 0 0 0 0 0 5 5 5 7 5 5 5 5 98 100 100 100 100 96 100 100
52 12 5 5 4 4 4 0 0 0 0 0 0 0 0 0 0 0 0 0 0 0 5 5 5 5 5 5 5 5 83 99 79 5 5 97 96 72
60 6 5 5 5 5 3 0 0 0 0 3 0 0 0 0 0 0 1 0 1 4 2 5 3 3 5 7 5 5 5 5 5 5 5 21 98 67
6 5 5 5 5 5 5 3 2 0 0 3 5 3 0 0 0 5 2 4 4 0 1 0 4 5 5 5 5 5 5 5 5 5 89 86 90 100
5 5 81 60 5 5 15 5 5 0 4 5 1 0 3 2 5 2 5 5 5 4 5 4 5 5 5 5 5 5 5 5 5 5 28 100 100 95
5 6 97 44 5 5 5 5 2 5 2 5 1 5 0 5 5 5 56 96 96 10 5 5 5 5 5 5 4 5 94 69 5 5 100 100 100 69
5 26 100 61 5 5 5 2 1 0 2 5 5 3 5 5 10 11 91 99 100 25 44 54 5 5 4 5 5 21 95 82 50 56 100 100 41 39
5 22 85 74 39 5 5 0 0 0 4 5 2 0 2 5 68 6 5 14 28 11 5 94 5 5 5 5 5 5 14 100 87 5 84 81 100 100
5 51 70 39 21 5 5 3 2 2 0 5 5 4 5 11 5 5 5 64 98 83 14 78 9 5 5 5 5 5 58 5 5 5 55 100 100 100
5 85 100 100 97 74 5 5 5 5 4 5 5 5 5 5 5 5 5 78 64 68 34 13 56 99 50 5 5 5 5 3 5 5 10 100 100 93
81 100 100 100 100 92 39 6 67 16 5 5 5 5 5 5 5 5 5 5 81 98 8 100 94 94 100 84 5 5 5 5 5 12 98 79 100 100
100 100 97 100 100 100 98 45 73 80 22 44 58 82 5 5 5 5 5 5 5 52 30 85 100 100 100 92 97 5 5 5 6 82 94 86 100 100
100 100 100 100 100 100 100 100 87 75 60 91 99 75 31 7 5 5 5 5 5 5 5 72 100 92 91 95 99 76 76 82 100 100 100 100 100 100
57 8 9 16 55 98 100 100 100 100 35 100 100 92 60 28 5 64 5 5 38 5 4 91 100 96 6 74 98 97 82 92 100 100 100 100 100 100
40 60 86 100 100 82 100 89 100 100 81 100 100 100 99 46 9 7 5 10 70 29 5 5 28 21 5 20 95 99 100 100 100 100 100 100 100 100
100 100 100 100 100 100 83 100 100 100 94 96 100 100 100 60 24 30 5 8 84 21 5 5 8 22 29 7 97 94 98 98 100 100 100 100 100 100
100 100 100 100 100 90 80 96 100 100 100 92 100 100 100 71 12 7 9 34 5 22 5 5 15 74 100 100 28 95 100 92 100 100 100 100 100 100
100 100 100 100 100 78 89 98 100 100 100 87 100 100 100 97 39 12 7 66 7 60 10 5 38 91 100 100 92 96 99 94 100 100 100 100 100 100
100 100 100 100 100 100 100 99 95 100 100 100 100 100 100 100 44 53 25 60 41 60 37 5 6 86 97 100 100 83 85 99 100 100 100 100 100 100
100 100 100 100 100 100 100 100 97 98 100 100 100 100 100 100 62 70 69 57 5 54 36 5 5 60 99 100 100 99 99 88 94 100 100 100 100 100
100 100 100 100 100 100 100 100 94 100 100 100 100 100 100 100 93 85 54 6 9 71 6 5 5 11 100 100 97 100 98 100 94 82 97 100 100 100